Terminal Aerodrome Forecast
Issued by NWS

Home | Current Version | Previous Version | Text Only | Print | Product List | Glossary On
Versions: 1 2 3 4 5 6 7 8 9 10 11 12 13 14 15 16 17 18
000
FTUS41 KPBZ 302300 AAA
TAFMGW
TAF AMD
KMGW 302300Z 3023/3118 26005KT P6SM BKN050
     FM311200 19008KT P6SM OVC050
     FM311600 22013G20KT P6SM -SHRA OVC030=

USA.gov is the U.S. government's official web portal to all federal, state and local government web resources and services.